Weather History for KVEL - November, 2013

Change the Weather History Date:

Tuesday, November 19, 2013

  Actual Average Record
Temperature  
Mean Temperature 34 °F 32 °F  
Max Temperature 44 °F 42 °F 60 °F (1967)
Min Temperature 24 °F 22 °F 0 °F (1958)
Degree Days  
Heating Degree Days 31 33  
Month to date heating degree days 536 531  
Since 1 July heating degree days 1271 1235  
Cooling Degree Days 0 0  
Month to date cooling degree days 0 0  
Year to date cooling degree days 787 511  
Moisture  
Dew Point 26 °F    
Average Humidity 68    
Maximum Humidity 82    
Minimum Humidity 53    
Precipitation  
Precipitation 0.00 in 0.02 in 0.66 in (1977)
Month to date precipitation 0.02 0.42  
Year to date precipitation 8.43 8.50  
Sea Level Pressure  
Sea Level Pressure 30.00 in    
Wind  
Wind Speed 2 mph (WNW)    
Max Wind Speed 7 mph    
Max Gust Speed 8 mph    
Visibility 10 miles    
Events      
T = Trace of Precipitation, MM = Missing Value Source: NWS Daily Summary

Daily Weather History Graph

Daily Weather History Graph

Search for Another Location

Airport or City:

Trip Planner

Search our weather history database for the weather conditions in past years. The results will help you decide how hot, cold, wet, or windy it might be!

Date:

Astronomy

Nov. 19, 2013 Rise Set
Actual Time 7:09 AM MST 4:57 PM MST
Civil Twilight 6:39 AM MST 5:27 PM MST
Nautical Twilight 6:06 AM MST 6:00 PM MST
Astronomical Twilight 5:34 AM MST 6:32 PM MST
Moon 6:51 PM MST (11/19) 8:51 AM MST (11/19)
Length of Visible Light 10h 47m
Length of Day
9h 48m
Waning Gibbous, 96% of the Moon is Illuminated
Nov 19
Waning Gibbous
Nov 25
Last Quarter
Dec 2
New
Dec 9
First Quarter
Dec 17
Full

Hourly Weather History & Observations

Time (MST) Temp. Windchill Dew Point Humidity Pressure Visibility Wind Dir Wind Speed Gust Speed Precip Events Conditions
12:53 AM 27.0 °F 23.0 °F 21.9 °F 81% 30.09 in 10.0 mi WNW 3.5 mph - N/A   Clear
1:53 AM 27.0 °F 21.6 °F 21.9 °F 81% 30.07 in 10.0 mi West 4.6 mph - N/A   Clear
2:53 AM 27.0 °F 21.6 °F 21.9 °F 81% 30.05 in 10.0 mi West 4.6 mph - N/A   Clear
3:53 AM 26.1 °F 21.9 °F 21.9 °F 84% 30.04 in 10.0 mi West 3.5 mph - N/A   Clear
4:53 AM 26.1 °F 19.4 °F 21.0 °F 81% 30.03 in 10.0 mi West 5.8 mph - N/A   Clear
5:53 AM 26.1 °F 19.4 °F 21.0 °F 81% 30.05 in 10.0 mi West 5.8 mph - N/A   Clear
6:53 AM 27.0 °F - 21.9 °F 81% 30.06 in 10.0 mi Calm Calm - N/A   Clear
7:53 AM 30.0 °F - 24.1 °F 79% 30.05 in 10.0 mi Calm Calm - N/A   Clear
8:53 AM 33.1 °F 30.0 °F 26.1 °F 75% 30.05 in 10.0 mi West 3.5 mph - N/A   Scattered Clouds
9:53 AM 35.1 °F - 28.9 °F 78% 30.04 in 10.0 mi Calm Calm - N/A   Overcast
10:53 AM 35.1 °F - 28.0 °F 76% 30.05 in 10.0 mi Calm Calm - N/A   Overcast
11:53 AM 39.0 °F - 27.0 °F 62% 30.00 in 10.0 mi Calm Calm - N/A   Clear
12:53 PM 39.9 °F - 27.0 °F 60% 29.97 in 10.0 mi Calm Calm - N/A   Overcast
1:53 PM 42.1 °F - 27.0 °F 55% 29.94 in 10.0 mi Calm Calm - N/A   Overcast
2:53 PM 43.0 °F - 27.0 °F 53% 29.93 in 10.0 mi Calm Calm - N/A   Mostly Cloudy
3:53 PM 43.0 °F - 27.0 °F 53% 29.93 in 10.0 mi Calm Calm - N/A   Mostly Cloudy
4:53 PM 43.0 °F - 27.0 °F 53% 29.93 in 10.0 mi Calm Calm - N/A   Overcast
5:53 PM 41.0 °F - 28.0 °F 60% 29.95 in 10.0 mi Calm Calm - N/A   Overcast
6:53 PM 42.1 °F - 28.9 °F 60% 29.95 in 10.0 mi Calm Calm - N/A   Overcast
7:53 PM 39.0 °F 35.7 °F 28.9 °F 67% 29.96 in 10.0 mi NNW 4.6 mph - N/A   Overcast
8:53 PM 41.0 °F - 32.0 °F 70% 29.94 in 10.0 mi Calm Calm - N/A   Overcast
9:53 PM 35.1 °F - 28.9 °F 78% 29.97 in 10.0 mi Calm Calm - N/A   Partly Cloudy
10:53 PM 33.1 °F 30.0 °F 28.0 °F 82% 29.97 in 10.0 mi WNW 3.5 mph - N/A   Overcast
11:53 PM 32.0 °F 27.5 °F 27.0 °F 82% 29.96 in 10.0 mi West 4.6 mph - N/A   Mostly Cloudy